Location: Piedralaves
(40.3172°N, 4.7002°W)
Time: 19:53:52
(UTC+00:00)

Daily predictions for brighter satellites

Satellite Brightness Start Highest point End
(mag) Time Altitude Azimuth Time Altitude Azimuth Time Altitude Azimuth
Meteor 1-13 Rocket 4.3 20:16:43 10° S 20:22:28 86° E 20:28:08 10° N
SL-14 R/B 3.9 20:23:54 10° SSE 20:27:21 35° E 20:30:50 10° NNE
SL-4 R/B 4.2 20:27:14 10° NNW 20:29:58 19° NNE 20:32:49 10° ENE
Cosmos 2333 Rocket 2.7 20:24:45 10° NNW 20:30:21 49° ENE 20:35:55 10° SE
Cosmos 1655 Rocket 4.4 20:26:14 10° SSE 20:32:18 48° E 20:38:23 10° NNE
BlueWalker 3 2.2 20:29:03 10° WSW 20:32:47 72° NW 20:36:32 10° NE
Cosmos 968 Rocket 3.5 20:28:40 10° S 20:33:44 64° ESE 20:38:53 10° NNE
SL-24 R/B 4.0 20:29:18 10° SSE 20:33:45 87° E 20:37:43 10° N
Cosmos 1833 4.2 20:31:36 10° SSW 20:37:11 71° ESE 20:42:48 10° NNE
CZ-4C R/B 3.8 20:33:42 10° NNE 20:37:39 44° E 20:41:29 10° S
Cosmos 1932 4.5 20:32:47 10° SSW 20:39:06 75° ESE 20:45:24 10° NE
ASTRO E2 4.3 20:40:27 10° SW 20:42:34 15° S 20:44:34 10° SSE
CARTOSAT-1 4.5 20:38:33 10° S 20:42:39 48° W 20:46:47 10° NNW
Resurs 01 Rocket 2.7 20:39:57 10° S 20:44:08 44° W 20:48:21 10° NNW
Cosmos 1733 Rocket 3.8 20:40:05 10° N 20:44:11 36° ENE 20:47:58 12° SE
Cosmos 1356 Rocket 3.5 20:40:14 10° S 20:44:21 60° E 20:48:30 10° NNE
Meteor 1-23 Rocket 4.2 20:39:23 10° S 20:45:04 80° E 20:50:50 10° NNE
Cosmos 1850 Rocket 4.4 20:41:20 10° SSW 20:46:31 67° WNW 20:51:42 10° NNE
Cosmos 2322 Rocket 2.3 20:45:20 10° NNW 20:51:03 82° WSW 20:56:44 10° SSE
USA 234 3.8 20:47:01 10° ENE 20:52:49 33° SE 20:58:35 10° S
MOS 1 4.3 20:48:11 10° SSE 20:53:48 79° ENE 20:59:28 10° NNW
Cosmos 2297 Rocket 4.1 20:53:49 10° ESE 20:55:01 11° E 20:56:14 10° E
Atlas Centaur 2 4.3 20:52:56 10° WSW 20:58:13 21° SSW 21:03:40 11° SSE
CZ-4 R/B 4.2 20:56:46 10° WSW 20:58:53 14° W 21:01:02 10° WNW
ARGOS Delta rocket 3.6 20:54:38 10° SSE 20:58:59 74° ENE 21:03:22 10° N
Cosmos 1758 3.2 20:55:12 10° N 20:59:09 73° E 21:02:42 12° SSE
MOS 1 Rocket 4.4 20:58:40 14° SE 21:02:41 36° ENE 21:07:23 10° N
Cosmos 1300 2.4 20:59:35 10° N 21:03:08 78° E 21:06:06 14° SSE
Delta 2 Rocket 4.2 21:04:56 10° SSW 21:07:18 19° SSE 21:07:20 19° SSE
Cosmos 2219 Rocket 2.5 21:01:53 10° NNW 21:07:28 55° ENE 21:11:43 17° SE
ERS-1 Rocket 3.2 21:03:31 15° SE 21:07:32 54° ENE 21:12:25 10° N
Cosmos 1814 Rocket 4.1 21:03:09 10° NNW 21:08:28 67° ENE 21:12:36 17° SSE
Cosmos 2315 Rocket 4.0 21:03:47 10° N 21:10:13 83° E 21:16:22 11° S
Terra 2.2 21:07:31 17° SE 21:10:53 47° ENE 21:15:25 10° N
SPOT 5 2.7 21:09:54 13° S 21:13:46 81° WSW 21:18:15 10° NNW
Meteor 1-4 Rocket 1.9 21:16:04 17° S 21:18:16 79° E 21:21:16 10° NNE
Aureole 3 3.7 21:18:08 11° S 21:22:13 83° E 21:27:36 10° N
Landsat 4 4.3 21:24:23 25° ESE 21:25:42 35° ENE 21:28:51 10° N
Cosmos 2084 Rocket 4.3 21:25:43 24° SE 21:26:53 28° ESE 21:30:31 10° ENE
Okean-O 3.9 21:24:39 10° SSW 21:28:43 37° W 21:32:49 10° NNW
CZ-4C R/B 1.9 21:28:14 15° S 21:31:28 44° ESE 21:36:18 10° NE
SJ 16-02 2.6 21:27:44 10° SW 21:31:49 41° WNW 21:35:56 10° N
SPOT 3 Rocket 3.7 21:30:22 23° SE 21:33:30 59° ENE 21:38:35 10° N
COSMOS 2428 3.4 21:28:31 10° N 21:33:55 42° ENE 21:37:11 22° ESE
Cosmos 1953 2.7 21:31:03 10° N 21:34:43 43° E 21:36:01 31° SE
Cosmos 1455 2.6 21:33:01 10° N 21:36:20 39° E 21:37:15 32° ESE
Cosmos 2360 Rocket 3.1 21:31:11 10° NW 21:36:31 44° WSW 21:41:02 14° S
BREEZE-M DEB (TANK) 3.5 21:34:32 10° SW 21:39:51 - ENE 21:36:21 29° SSW
USA 245 3.6 21:34:55 24° S 21:37:22 80° W 21:42:19 10° NNW
Spot 2 Rocket 3.5 21:34:54 23° SSE 21:38:05 78° ENE 21:43:12 10° N
Okean O Rocket 4.2 21:35:55 10° SW 21:38:31 15° W 21:41:08 10° NW
ATLAS 2AS CENTAUR R/B 3.2 21:34:16 10° NW 21:40:45 51° WSW 21:45:21 19° S
Cosmos 1703 Rocket 3.7 21:41:35 29° SSE 21:43:39 55° E 21:48:00 10° NNE
Cosmos 1242 Rocket 1.7 21:44:43 63° ESE 21:44:46 64° E 21:47:28 10° NNE
Okean 1-7 3.0 21:42:51 20° S 21:45:48 87° W 21:50:07 10° N
Cosmos 1315 Rocket 3.0 21:44:20 17° SSW 21:47:19 68° W 21:51:19 10° N
SL-23 DEB 4.3 21:48:12 36° SE 21:48:33 37° SE 21:53:13 10° ENE
SeaSat 1 2.5 21:52:49 31° SE 21:55:06 70° ENE 22:00:01 10° NNW
Cosmos 2208 Rocket 4.3 21:51:19 10° N 21:56:23 53° ENE 21:58:30 32° SE
COSMOS 2455 2.7 21:51:07 10° SSW 21:57:07 78° ESE 22:03:09 10° NNE
Landsat 5 3.4 21:56:34 10° NNE 22:00:44 67° ESE 22:02:11 39° S
Cosmos 1408 3.7 22:02:06 23° ENE 22:02:06 23° ENE 22:03:49 10° NNE
Ariane Rocket 3.2 22:00:37 27° S 22:03:24 66° WSW 22:08:29 10° NNW
Cosmos 158 Rocket 4.1 22:00:01 10° NNW 22:05:12 60° ENE 22:07:05 37° SE
SL-4 R/B 2.3 22:05:25 10° NW 22:09:17 59° NNE 22:10:36 38° E
Cosmos 1486 Rocket 3.9 22:08:49 30° S 22:11:27 75° ESE 22:16:39 10° NNE
CENTAUR R/B 3.1 22:11:56 29° ESE 22:12:07 29° ESE 22:17:26 10° NE
Okean 2 4.5 22:09:45 17° SW 22:12:26 40° WNW 22:16:15 10° N
Cosmos 2333 Rocket 4.0 22:09:48 10° NW 22:14:14 23° WSW 22:18:12 12° SSW
NOSS 5 (C) 4.1 22:11:17 10° NW 22:14:25 86° SW 22:14:29 85° S
Cosmos 2237 Rocket 3.1 22:12:15 10° N 22:17:29 37° ENE 22:19:45 27° ESE
Cosmos 2227 Rocket 3.0 22:18:48 30° ESE 22:19:11 31° ESE 22:24:04 10° NE
Cosmos 2322 4.1 22:24:58 10° NNW 22:30:29 55° WSW 22:32:34 35° SSW
Cosmos 1980 4.1 22:26:23 10° NNW 22:31:56 52° ENE 22:33:48 37° ESE
Cosmos 2242 Rocket 3.6 22:31:20 58° SE 22:32:00 68° E 22:36:33 10° NNE
Cosmos 1354 Rocket 4.2 22:31:07 47° SE 22:32:01 52° ESE 22:37:09 10° NNE
Cosmos 1709 Rocket 4.0 22:33:28 40° SSE 22:35:49 68° E 22:42:07 10° NNE
USA 234 3.5 22:29:34 10° NE 22:36:04 68° NW 22:42:31 10° WSW
Cosmos 2297 Rocket 2.1 22:35:31 34° SSW 22:38:08 88° ESE 22:43:49 10° NNE
Cosmos 1782 Rocket 3.7 22:42:27 10° NNW 22:46:44 61° W 22:47:21 54° SW
Cosmos 371 Rocket 3.8 22:45:02 28° SW 22:47:20 55° WNW 22:52:05 10° N
Terra 4.0 22:46:13 12° SW 22:48:42 17° W 22:51:47 10° NW
Cosmos 2219 Rocket 4.1 22:46:53 10° NW 22:50:55 20° W 22:53:26 15° SW
Cosmos 2219 4.1 22:51:46 30° E 22:51:46 30° E 22:56:19 10° NE
USA 281 3.7 22:50:46 33° ESE 22:53:28 52° ENE 22:59:48 10° NNW
Cosmos 1300 Rocket 3.7 22:49:26 10° NNW 22:53:42 62° W 22:54:07 58° SW
Meteor 1-24 Rocket 3.7 22:52:47 53° SSE 22:54:06 73° E 22:59:39 10° NNE
Cosmos 1703 3.3 22:55:32 66° N 22:55:32 66° N 22:58:46 10° N
Cosmos 773 Rocket 3.8 22:51:04 10° NNW 22:56:15 89° WSW 22:57:07 63° SSE
ARIANE 5 R/B 2.5 22:57:21 71° E 22:57:31 72° ENE 23:01:52 10° N
PSLV R/B 4.0 22:55:41 10° NNE 22:59:12 62° NE 22:59:12 62° NE
Cosmos 2263 Rocket 3.5 23:01:07 24° E 23:01:07 24° E 23:04:58 10° NE
GP-B 3.9 22:59:40 10° NNW 23:03:50 43° W 23:04:43 38° WSW
Cosmos 1378 Rocket 3.8 23:10:40 57° ENE 23:10:40 57° ENE 23:14:38 10° NNE
Cosmos 1674 Rocket 4.0 23:14:09 50° ENE 23:14:09 50° ENE 23:17:51 10° NNE
COSMOS 2428 4.0 23:13:12 10° NW 23:17:54 27° WSW 23:19:10 25° SW
NOSS 3-2 (A) 3.1 23:18:38 58° ESE 23:18:38 58° ESE 23:24:11 10° NE
CZ-4C R/B 4.1 23:16:20 10° W 23:20:07 24° NW 23:24:37 10° NNE
Cosmos 1825 3.6 23:23:13 29° NNE 23:23:13 29° NNE 23:25:07 10° NNE
CZ-3 Stage 3 4.3 22:47:40 10° W 23:22:01 44° SW 23:25:33 36° S
NOSS 3-2 (C) 4.4 23:30:22 27° E 23:30:22 27° E 23:34:05 10° NE
Cosmos 2151 Rocket 3.6 23:27:45 10° N 23:31:48 72° NNE 23:31:48 72° NNE
H-2A R/B 2.6 23:32:47 73° NNW 23:32:47 73° NNW 23:36:37 10° NNW
Cosmos 1892 3.8 23:34:58 38° N 23:34:58 38° N 23:37:16 10° N
Cosmos 2098 Rocket 3.9 23:30:37 10° NNW 23:37:00 67° W 23:38:07 55° SW
Okean 2 Rocket 3.1 23:32:37 10° N 23:36:50 76° NNE 23:36:50 76° NNE
ALOS 2 2.8 23:42:15 67° NE 23:42:15 67° NE 23:46:18 10° N
Cosmos 405 Rocket 4.0 23:41:31 10° NNW 23:44:11 34° WNW 23:44:11 34° WNW
Aureole 1 Rocket 3.7 23:48:39 44° NE 23:48:39 44° NE 23:52:07 10° NNE
SL-4 R/B 4.5 23:44:38 10° W 23:45:19 13° W 23:45:19 13° W
Cosmos 1937 Rocket 4.5 23:48:31 34° E 23:48:31 34° E 23:52:45 10° NE
